Time,TemperatureF,DewpointF,PressureIn,WindDirection,WindDirectionDegrees,WindSpeedMPH,WindSpeedGustMPH,Humidity,HourlyPrecipIn,Conditions,Clouds,dailyrainin,SoftwareType,DateUTC
2013-07-10 00:07:00,80.3,72.0,29.89,NNW,346,8.0,9.0,76,0.00,,,0.00,weatherlink.com 1.10,2013-07-10 05:07:00,
2013-07-10 00:22:00,80.6,71.0,29.89,North,9,12.0,13.0,73,0.00,,,0.00,weatherlink.com 1.10,2013-07-10 05:22:00,
2013-07-10 00:37:00,80.1,71.0,29.89,North,5,9.0,14.0,73,0.00,,,0.00,weatherlink.com 1.10,2013-07-10 05:37:00,
2013-07-10 00:52:00,79.4,70.0,29.90,NNE,14,10.0,12.0,73,0.00,,,0.00,weatherlink.com 1.10,2013-07-10 05:52:00,
2013-07-10 01:07:00,78.9,70.0,29.90,North,360,6.0,11.0,74,0.00,,,0.00,weatherlink.com 1.10,2013-07-10 06:07:00,
2013-07-10 01:22:00,78.0,70.0,29.90,North,11,7.0,10.0,76,0.00,,,0.00,weatherlink.com 1.10,2013-07-10 06:22:00,
2013-07-10 01:37:00,77.2,70.0,29.90,NNE,13,3.0,9.0,78,0.00,,,0.00,weatherlink.com 1.10,2013-07-10 06:37:00,
2013-07-10 01:52:00,76.7,70.0,29.91,North,5,6.0,6.0,79,0.00,,,0.00,weatherlink.com 1.10,2013-07-10 06:52:00,
2013-07-10 02:08:00,76.2,70.0,29.91,North,10,3.0,7.0,80,0.00,,,0.00,weatherlink.com 1.10,2013-07-10 07:08:00,
2013-07-10 02:23:00,75.7,70.0,29.93,WSW,240,1.0,3.0,82,0.00,,,0.00,weatherlink.com 1.10,2013-07-10 07:23:00,
2013-07-10 02:38:00,75.1,69.0,29.93,WSW,240,0.0,1.0,82,0.00,,,0.00,weatherlink.com 1.10,2013-07-10 07:38:00,
2013-07-10 02:53:00,73.7,69.0,29.93,West,262,0.0,1.0,85,0.00,,,0.00,weatherlink.com 1.10,2013-07-10 07:53:00,
2013-07-10 03:08:00,72.6,68.0,29.93,West,277,0.0,1.0,86,0.00,,,0.00,weatherlink.com 1.10,2013-07-10 08:08:00,
2013-07-10 03:23:00,71.4,68.0,29.93,West,277,0.0,0.0,88,0.00,,,0.00,weatherlink.com 1.10,2013-07-10 08:23:00,
2013-07-10 03:38:00,70.4,67.0,29.93,West,277,0.0,0.0,89,0.00,,,0.00,weatherlink.com 1.10,2013-07-10 08:38:00,
2013-07-10 03:53:00,69.8,67.0,29.93,NW,318,3.0,4.0,90,0.00,,,0.00,weatherlink.com 1.10,2013-07-10 08:53:00,
2013-07-10 04:08:00,71.0,68.0,29.94,NNW,338,7.0,9.0,89,0.00,,,0.00,weatherlink.com 1.10,2013-07-10 09:08:00,
2013-07-10 04:23:00,72.2,68.0,29.95,NNW,336,4.0,8.0,86,0.00,,,0.00,weatherlink.com 1.10,2013-07-10 09:23:00,
2013-07-10 04:38:00,72.4,67.0,29.95,NW,322,4.0,13.0,84,0.00,,,0.00,weatherlink.com 1.10,2013-07-10 09:38:00,
2013-07-10 04:53:00,72.2,67.0,29.96,NNW,347,3.0,12.0,83,0.00,,,0.00,weatherlink.com 1.10,2013-07-10 09:53:00,
2013-07-10 05:08:00,71.9,67.0,29.96,NNW,340,4.0,9.0,83,0.00,,,0.00,weatherlink.com 1.10,2013-07-10 10:08:00,
2013-07-10 05:23:00,71.6,66.0,29.97,NNE,19,4.0,10.0,81,0.00,,,0.00,weatherlink.com 1.10,2013-07-10 10:23:00,
2013-07-10 05:38:00,71.3,65.0,29.97,North,355,6.0,12.0,81,0.00,,,0.00,weatherlink.com 1.10,2013-07-10 10:38:00,
2013-07-10 05:53:00,70.8,65.0,29.97,NNW,336,5.0,10.0,83,0.00,,,0.00,weatherlink.com 1.10,2013-07-10 10:53:00,
2013-07-10 06:08:00,70.4,64.0,29.97,North,355,14.0,17.0,81,0.00,,,0.00,weatherlink.com 1.10,2013-07-10 11:08:00,
2013-07-10 06:23:00,69.8,64.0,29.98,NNW,333,3.0,10.0,83,0.00,,,0.00,weatherlink.com 1.10,2013-07-10 11:23:00,
2013-07-10 06:38:00,69.7,64.0,29.99,NNW,329,4.0,6.0,83,0.00,,,0.00,weatherlink.com 1.10,2013-07-10 11:38:00,
2013-07-10 06:53:00,70.3,64.0,30.00,NNW,343,3.0,11.0,80,0.00,,,0.00,weatherlink.com 1.10,2013-07-10 11:53:00,
2013-07-10 07:08:00,71.0,64.0,30.00,NNW,345,5.0,10.0,78,0.00,,,0.00,weatherlink.com 1.10,2013-07-10 12:08:00,
2013-07-10 07:23:00,71.5,64.0,30.00,NW,311,3.0,8.0,76,0.00,,,0.00,weatherlink.com 1.10,2013-07-10 12:23:00,
2013-07-10 07:38:00,71.9,62.0,30.01,NNW,345,8.0,11.0,71,0.00,,,0.00,weatherlink.com 1.10,2013-07-10 12:38:00,
2013-07-10 07:53:00,72.2,61.0,30.01,NNW,337,5.0,13.0,69,0.00,,,0.00,weatherlink.com 1.10,2013-07-10 12:53:00,
2013-07-10 08:08:00,72.1,61.0,30.01,North,355,9.0,15.0,67,0.00,,,0.00,weatherlink.com 1.10,2013-07-10 13:08:00,
2013-07-10 08:23:00,72.7,61.0,30.01,North,5,10.0,12.0,67,0.00,,,0.00,weatherlink.com 1.10,2013-07-10 13:23:00,
2013-07-10 08:38:00,73.8,62.0,30.01,NNW,341,8.0,11.0,67,0.00,,,0.00,weatherlink.com 1.10,2013-07-10 13:38:00,
2013-07-10 08:53:00,74.2,61.0,30.02,NNW,329,6.0,13.0,64,0.00,,,0.00,weatherlink.com 1.10,2013-07-10 13:53:00,
2013-07-10 09:08:00,74.7,61.0,30.01,NNW,342,8.0,15.0,63,0.00,,,0.00,weatherlink.com 1.10,2013-07-10 14:08:00,
2013-07-10 09:23:00,75.5,61.0,30.01,North,355,8.0,17.0,61,0.00,,,0.00,weatherlink.com 1.10,2013-07-10 14:23:00,
2013-07-10 09:38:00,76.0,60.0,30.00,North,355,13.0,17.0,57,0.00,,,0.00,weatherlink.com 1.10,2013-07-10 14:38:00,
2013-07-10 09:53:00,76.0,60.0,30.01,North,5,13.0,18.0,57,0.00,,,0.00,weatherlink.com 1.10,2013-07-10 14:53:00,
2013-07-10 10:08:00,76.6,60.0,30.01,North,355,12.0,18.0,57,0.00,,,0.00,weatherlink.com 1.10,2013-07-10 15:08:00,
2013-07-10 10:24:00,77.5,59.0,30.02,North,355,8.0,16.0,53,0.00,,,0.00,weatherlink.com 1.10,2013-07-10 15:24:00,
2013-07-10 10:39:00,77.5,59.0,30.02,North,350,9.0,16.0,53,0.00,,,0.00,weatherlink.com 1.10,2013-07-10 15:39:00,
2013-07-10 10:54:00,78.3,60.0,30.02,North,360,9.0,11.0,53,0.00,,,0.00,weatherlink.com 1.10,2013-07-10 15:54:00,
2013-07-10 11:09:00,78.9,60.0,30.03,North,355,8.0,16.0,52,0.00,,,0.00,weatherlink.com 1.10,2013-07-10 16:09:00,
2013-07-10 11:24:00,78.9,59.0,30.03,North,360,9.0,13.0,51,0.00,,,0.00,weatherlink.com 1.10,2013-07-10 16:24:00,
2013-07-10 11:39:00,78.6,58.0,30.03,North,5,9.0,12.0,50,0.00,,,0.00,weatherlink.com 1.10,2013-07-10 16:39:00,
2013-07-10 11:54:00,79.3,57.0,30.04,North,360,13.0,16.0,46,0.00,,,0.00,weatherlink.com 1.10,2013-07-10 16:54:00,
2013-07-10 12:09:00,79.8,58.0,30.05,NNW,346,9.0,15.0,48,0.00,,,0.00,weatherlink.com 1.10,2013-07-10 17:09:00,
2013-07-10 12:24:00,80.8,58.0,30.04,NNE,15,8.0,13.0,46,0.00,,,0.00,weatherlink.com 1.10,2013-07-10 17:24:00,
2013-07-10 12:39:00,80.0,56.0,30.04,NE,42,7.0,12.0,44,0.00,,,0.00,weatherlink.com 1.10,2013-07-10 17:39:00,
2013-07-10 12:54:00,80.9,57.0,30.04,NNW,341,7.0,15.0,44,0.00,,,0.00,weatherlink.com 1.10,2013-07-10 17:54:00,
2013-07-10 13:09:00,80.9,58.0,30.04,NW,311,4.0,10.0,46,0.00,,,0.00,weatherlink.com 1.10,2013-07-10 18:09:00,
2013-07-10 13:24:00,81.1,58.0,30.04,NW,323,3.0,14.0,46,0.00,,,0.00,weatherlink.com 1.10,2013-07-10 18:24:00,
2013-07-10 13:39:00,81.0,58.0,30.04,ENE,69,0.0,12.0,45,0.00,,,0.00,weatherlink.com 1.10,2013-07-10 18:39:00,
2013-07-10 13:54:00,81.7,58.0,30.04,NNW,345,5.0,12.0,45,0.00,,,0.00,weatherlink.com 1.10,2013-07-10 18:54:00,
2013-07-10 14:09:00,82.0,58.0,30.04,NE,34,3.0,10.0,44,0.00,,,0.00,weatherlink.com 1.10,2013-07-10 19:09:00,
2013-07-10 14:24:00,82.6,57.0,30.04,NNW,348,7.0,12.0,41,0.00,,,0.00,weatherlink.com 1.10,2013-07-10 19:24:00,
2013-07-10 14:39:00,82.8,56.0,30.04,NNW,348,1.0,12.0,40,0.00,,,0.00,weatherlink.com 1.10,2013-07-10 19:39:00,
2013-07-10 14:54:00,82.1,55.0,30.03,NNE,32,3.0,8.0,40,0.00,,,0.00,weatherlink.com 1.10,2013-07-10 19:54:00,
2013-07-10 15:09:00,83.1,57.0,30.04,North,10,10.0,10.0,41,0.00,,,0.00,weatherlink.com 1.10,2013-07-10 20:09:00,
2013-07-10 15:24:00,83.0,56.0,30.03,NW,305,5.0,11.0,40,0.00,,,0.00,weatherlink.com 1.10,2013-07-10 20:24:00,
2013-07-10 15:39:00,83.0,57.0,30.03,NW,311,0.0,9.0,41,0.00,,,0.00,weatherlink.com 1.10,2013-07-10 20:39:00,
2013-07-10 15:54:00,83.4,57.0,30.03,NNW,337,4.0,9.0,41,0.00,,,0.00,weatherlink.com 1.10,2013-07-10 20:54:00,
2013-07-10 16:09:00,83.8,57.0,30.03,North,9,5.0,7.0,40,0.00,,,0.00,weatherlink.com 1.10,2013-07-10 21:09:00,
2013-07-10 16:24:00,83.3,58.0,30.03,WNW,302,3.0,8.0,43,0.00,,,0.00,weatherlink.com 1.10,2013-07-10 21:24:00,
2013-07-10 16:39:00,83.6,56.0,30.02,North,360,4.0,10.0,39,0.00,,,0.00,weatherlink.com 1.10,2013-07-10 21:39:00,
2013-07-10 16:54:00,84.1,57.0,30.01,North,9,7.0,9.0,39,0.00,,,0.00,weatherlink.com 1.10,2013-07-10 21:54:00,
2013-07-10 17:09:00,84.5,58.0,30.01,NW,316,1.0,8.0,40,0.00,,,0.00,weatherlink.com 1.10,2013-07-10 22:09:00,
2013-07-10 17:24:00,84.7,59.0,30.01,NNW,342,2.0,5.0,42,0.00,,,0.00,weatherlink.com 1.10,2013-07-10 22:24:00,
2013-07-10 17:39:00,84.1,57.0,30.00,NW,318,0.0,6.0,39,0.00,,,0.00,weatherlink.com 1.10,2013-07-10 22:39:00,
2013-07-10 17:54:00,84.5,58.0,29.99,NNW,327,3.0,7.0,40,0.00,,,0.00,weatherlink.com 1.10,2013-07-10 22:54:00,
2013-07-10 18:09:00,84.4,58.0,29.99,NW,306,0.0,5.0,40,0.00,,,0.00,weatherlink.com 1.10,2013-07-10 23:09:00,
2013-07-10 18:24:00,84.5,57.0,29.99,NW,309,1.0,8.0,39,0.00,,,0.00,weatherlink.com 1.10,2013-07-10 23:24:00,
2013-07-10 18:39:00,83.5,58.0,29.99,NW,313,1.0,5.0,42,0.00,,,0.00,weatherlink.com 1.10,2013-07-10 23:39:00,
2013-07-10 18:54:00,83.3,57.0,29.99,NNW,337,2.0,7.0,40,0.00,,,0.00,weatherlink.com 1.10,2013-07-10 23:54:00,
2013-07-10 19:09:00,83.2,56.0,29.99,NNW,334,4.0,5.0,40,0.00,,,0.00,weatherlink.com 1.10,2013-07-11 00:09:00,
2013-07-10 19:24:00,82.8,57.0,29.98,NNW,346,2.0,5.0,41,0.00,,,0.00,weatherlink.com 1.10,2013-07-11 00:24:00,
2013-07-10 19:39:00,82.3,58.0,29.98,NNW,341,2.0,4.0,43,0.00,,,0.00,weatherlink.com 1.10,2013-07-11 00:39:00,
2013-07-10 20:05:00,79.1,61.0,29.98,NNW,338,1.0,2.0,54,0.00,,,0.00,weatherlink.com 1.10,2013-07-11 01:05:00,
2013-07-10 20:24:00,77.9,59.0,29.98,North,360,1.0,2.0,52,0.00,,,0.00,weatherlink.com 1.10,2013-07-11 01:24:00,
2013-07-10 20:39:00,76.1,59.0,29.98,North,360,0.0,1.0,56,0.00,,,0.00,weatherlink.com 1.10,2013-07-11 01:39:00,
2013-07-10 20:54:00,73.4,58.0,29.98,North,360,0.0,0.0,59,0.00,,,0.00,weatherlink.com 1.10,2013-07-11 01:54:00,
2013-07-10 21:09:00,71.5,58.0,29.98,North,360,0.0,0.0,62,0.00,,,0.00,weatherlink.com 1.10,2013-07-11 02:09:00,
2013-07-10 21:24:00,69.9,57.0,29.99,North,360,0.0,0.0,64,0.00,,,0.00,weatherlink.com 1.10,2013-07-11 02:24:00,
2013-07-10 21:39:00,68.8,57.0,30.00,North,360,0.0,0.0,67,0.00,,,0.00,weatherlink.com 1.10,2013-07-11 02:39:00,
2013-07-10 21:54:00,67.6,58.0,30.00,North,360,0.0,0.0,72,0.00,,,0.00,weatherlink.com 1.10,2013-07-11 02:54:00,
2013-07-10 22:09:00,66.5,58.0,30.01,North,360,0.0,0.0,74,0.00,,,0.00,weatherlink.com 1.10,2013-07-11 03:09:00,
2013-07-10 22:24:00,65.5,58.0,30.02,North,360,0.0,0.0,77,0.00,,,0.00,weatherlink.com 1.10,2013-07-11 03:24:00,
2013-07-10 22:39:00,64.5,58.0,30.02,North,360,0.0,0.0,78,0.00,,,0.00,weatherlink.com 1.10,2013-07-11 03:39:00,
2013-07-10 22:55:00,64.0,58.0,30.03,North,360,0.0,0.0,81,0.00,,,0.00,weatherlink.com 1.10,2013-07-11 03:55:00,
2013-07-10 23:10:00,63.5,58.0,30.04,North,360,0.0,0.0,81,0.00,,,0.00,weatherlink.com 1.10,2013-07-11 04:10:00,
2013-07-10 23:25:00,62.9,58.0,30.04,North,360,0.0,0.0,83,0.00,,,0.00,weatherlink.com 1.10,2013-07-11 04:25:00,
2013-07-10 23:40:00,62.2,57.0,30.04,North,360,0.0,0.0,83,0.00,,,0.00,weatherlink.com 1.10,2013-07-11 04:40:00,
2013-07-10 23:55:00,62.1,57.0,30.05,North,360,0.0,0.0,84,0.00,,,0.00,weatherlink.com 1.10,2013-07-11 04:55:00,